| time (UTC) | temp C | wind direction | speed KPH | gust KPH | rain 1hr cm | rain 24hr cm | rain mn cm | humidity % | barometer mb |
| 20260906231557 | 24 | 136 | 3.2 | 6.4 | 0.00 | 0.03 | 0.00 | 29 | 1016.5 |
| 20260906230116 | 24 | 136 | 4.8 | 12.9 | 0.00 | 0.03 | 0.00 | 28 | 1016.5 |
| 20260906224612 | 24 | 136 | 3.2 | 11.3 | 0.00 | 0.03 | 0.00 | 28 | 1016.6 |
| 20260906223100 | 24 | 136 | 8.0 | 14.5 | 0.00 | 0.03 | 0.00 | 26 | 1016.5 |
| 20260906221604 | 24 | 136 | 3.2 | 9.7 | 0.00 | 0.03 | 0.00 | 26 | 1016.7 |
| 20260906220054 | 24 | 136 | 3.2 | 12.9 | 0.00 | 0.03 | 0.00 | 26 | 1016.7 |
| 20260906214602 | 24 | 136 | 6.4 | 14.5 | 0.00 | 0.03 | 0.00 | 26 | 1016.7 |
| 20260906213111 | 25 | 136 | 3.2 | 11.3 | 0.00 | 0.03 | 0.00 | 25 | 1016.7 |
| 20260906211607 | 25 | 136 | 3.2 | 14.5 | 0.00 | 0.03 | 0.00 | 24 | 1016.8 |
| 20260906210052 | 25 | 136 | 4.8 | 11.3 | 0.00 | 0.03 | 0.00 | 23 | 1016.9 |
| 20260906204603 | 25 | 136 | 3.2 | 16.1 | 0.00 | 0.03 | 0.00 | 22 | 1017.3 |
| 20260906203056 | 25 | 136 | 9.7 | 17.7 | 0.00 | 0.03 | 0.00 | 22 | 1017.3 |
| 20260906201616 | 25 | 136 | 3.2 | 14.5 | 0.00 | 0.03 | 0.00 | 22 | 1017.4 |
| 20260906200057 | 24 | 136 | 6.4 | 16.1 | 0.00 | 0.03 | 0.00 | 23 | 1017.7 |
| 20260906194554 | 24 | 136 | 1.6 | 6.4 | 0.00 | 0.03 | 0.00 | 26 | 1017.7 |
| 20260906193102 | 25 | 136 | 1.6 | 11.3 | 0.00 | 0.03 | 0.00 | 28 | 1017.9 |
| 20260906191605 | 23 | 136 | 3.2 | 9.7 | 0.00 | 0.03 | 0.00 | 30 | 1018.0 |
| 20260906190056 | 23 | 136 | 3.2 | 9.7 | 0.00 | 0.03 | 0.00 | 35 | 1018.3 |
| 20260906184554 | 23 | 136 | 3.2 | 11.3 | 0.00 | 0.05 | 0.00 | 36 | 1018.5 |
| 20260906183121 | 23 | 136 | 3.2 | 6.4 | 0.00 | 0.05 | 0.00 | 36 | 1018.8 |
| 20260906181619 | 23 | 136 | 1.6 | 9.7 | 0.00 | 0.05 | 0.00 | 32 | 1019.1 |
| 20260906180115 | 22 | 136 | 3.2 | 6.4 | 0.00 | 0.05 | 0.00 | 36 | 1019.4 |
| 20260906174602 | 21 | 136 | 3.2 | 6.4 | 0.00 | 0.08 | 0.00 | 41 | 1019.7 |
| 20260906173059 | 21 | 136 | 1.6 | 6.4 | 0.00 | 0.08 | 0.00 | 43 | 1019.8 |
| 20260906171558 | 21 | 136 | 1.6 | 3.2 | 0.00 | 0.08 | 0.00 | 40 | 1019.9 |
| 20260906170055 | 21 | 136 | 0.0 | 4.8 | 0.00 | 0.08 | 0.00 | 35 | 1020.2 |
| 20260906164604 | 21 | 136 | 0.0 | 4.8 | 0.00 | 0.08 | 0.00 | 36 | 1020.3 |
| 20260906163107 | 20 | 136 | 1.6 | 3.2 | 0.00 | 0.08 | 0.00 | 41 | 1020.4 |
| 20260906161602 | 20 | 136 | 0.0 | 3.2 | 0.00 | 0.08 | 0.00 | 40 | 1020.4 |
| 20260906160055 | 18 | 136 | 0.0 | 3.2 | 0.00 | 0.08 | 0.00 | 46 | 1020.4 |
| 20260906154602 | 18 | 136 | 0.0 | 1.6 | 0.00 | 0.08 | 0.00 | 45 | 1020.4 |
| 20260906153100 | 17 | 0 | 0.0 | 0.0 | 0.00 | 0.08 | 0.00 | 46 | 1020.5 |
| 20260906151556 | 16 | 0 | 0.0 | 1.6 | 0.00 | 0.08 | 0.00 | 46 | 1020.5 |
| 20260906150106 | 15 | 0 | 0.0 | 1.6 | 0.00 | 0.08 | 0.00 | 48 | 1020.4 |
| 20260906144607 | 13 | 136 | 0.0 | 3.2 | 0.00 | 0.08 | 0.00 | 48 | 1020.4 |
| 20260906143058 | 13 | 0 | 0.0 | 1.6 | 0.00 | 0.08 | 0.00 | 51 | 1020.4 |
| 20260906141556 | 11 | 136 | 0.0 | 1.6 | 0.00 | 0.08 | 0.00 | 57 | 1020.5 |
| 20260906140052 | 11 | 0 | 0.0 | 1.6 | 0.00 | 0.08 | 0.00 | 56 | 1020.4 |
| 20260906134604 | 10 | 136 | 0.0 | 1.6 | 0.00 | 0.08 | 0.00 | 55 | 1020.2 |
| 20260906133056 | 8 | 136 | 0.0 | 1.6 | 0.00 | 0.08 | 0.00 | 58 | 1020.0 |
| 20260906131605 | 10 | 0 | 0.0 | 1.6 | 0.00 | 0.08 | 0.00 | 53 | 1019.9 |
| 20260906130110 | 10 | 136 | 0.0 | 1.6 | 0.00 | 0.08 | 0.00 | 51 | 1019.9 |
| 20260906124555 | 12 | 136 | 3.2 | 4.8 | 0.00 | 0.08 | 0.00 | 43 | 1019.8 |
| 20260906123103 | 12 | 136 | 1.6 | 4.8 | 0.00 | 0.08 | 0.00 | 44 | 1019.7 |
| 20260906121609 | 12 | 136 | 3.2 | 9.7 | 0.00 | 0.08 | 0.00 | 44 | 1019.7 |
| 20260906120101 | 12 | 136 | 3.2 | 4.8 | 0.00 | 0.08 | 0.00 | 41 | 1019.8 |
| 20260906114610 | 11 | 136 | 1.6 | 4.8 | 0.00 | 0.08 | 0.00 | 42 | 1019.7 |
| 20260906113057 | 11 | 136 | 1.6 | 4.8 | 0.00 | 0.08 | 0.00 | 46 | 1019.7 |
| 20260906111604 | 11 | 136 | 3.2 | 4.8 | 0.00 | 0.08 | 0.00 | 45 | 1019.7 |
| 20260906110059 | 11 | 0 | 0.0 | 1.6 | 0.00 | 0.08 | 0.00 | 48 | 1020.0 |
| 20260906104556 | 10 | 0 | 0.0 | 3.2 | 0.00 | 0.08 | 0.00 | 52 | 1019.9 |
| 20260906103105 | 10 | 0 | 0.0 | 0.0 | 0.00 | 0.08 | 0.00 | 53 | 1019.8 |
| 20260906101559 | 11 | 0 | 0.0 | 1.6 | 0.00 | 0.08 | 0.00 | 51 | 1019.6 |
| 20260906100059 | 12 | 0 | 0.0 | 4.8 | 0.00 | 0.08 | 0.00 | 47 | 1019.6 |
| 20260906094557 | 12 | 136 | 1.6 | 3.2 | 0.00 | 0.08 | 0.00 | 45 | 1019.5 |
| 20260906093102 | 12 | 136 | 0.0 | 3.2 | 0.00 | 0.08 | 0.00 | 51 | 1019.4 |
| 20260906091559 | 11 | 136 | 0.0 | 3.2 | 0.00 | 0.08 | 0.00 | 45 | 1019.4 |
| 20260906090106 | 13 | 136 | 1.6 | 3.2 | 0.00 | 0.08 | 0.00 | 41 | 1019.2 |
| 20260906084600 | 13 | 136 | 0.0 | 4.8 | 0.00 | 0.08 | 0.00 | 39 | 1019.4 |
| 20260906083052 | 13 | 136 | 0.0 | 3.2 | 0.00 | 0.08 | 0.00 | 39 | 1019.5 |
| 20260906081614 | 14 | 136 | 1.6 | 4.8 | 0.00 | 0.08 | 0.00 | 37 | 1019.5 |
| 20260906080059 | 14 | 136 | 1.6 | 4.8 | 0.00 | 0.08 | 0.00 | 37 | 1019.5 |
| 20260906074609 | 14 | 136 | 1.6 | 4.8 | 0.00 | 0.08 | 0.00 | 36 | 1019.6 |
| 20260906073102 | 14 | 136 | 1.6 | 3.2 | 0.00 | 0.08 | 0.00 | 39 | 1019.5 |
| 20260906071603 | 14 | 136 | 3.2 | 4.8 | 0.00 | 0.08 | 0.00 | 37 | 1019.4 |
| 20260906070100 | 15 | 136 | 1.6 | 4.8 | 0.00 | 0.08 | 0.00 | 38 | 1019.4 |
| 20260906064553 | 15 | 136 | 3.2 | 4.8 | 0.00 | 0.08 | 0.00 | 37 | 1019.4 |
| 20260906063101 | 15 | 136 | 1.6 | 4.8 | 0.00 | 0.08 | 0.00 | 37 | 1019.4 |
| 20260906061610 | 16 | 136 | 1.6 | 3.2 | 0.00 | 0.08 | 0.00 | 36 | 1019.4 |
| 20260906060058 | 16 | 136 | 1.6 | 4.8 | 0.00 | 0.08 | 0.00 | 34 | 1019.4 |
| 20260906054555 | 16 | 136 | 1.6 | 4.8 | 0.00 | 0.08 | 0.08 | 33 | 1019.3 |
| 20260906053101 | 16 | 136 | 3.2 | 4.8 | 0.00 | 0.08 | 0.08 | 33 | 1019.3 |
| 20260906051605 | 16 | 136 | 3.2 | 6.4 | 0.00 | 0.08 | 0.08 | 32 | 1019.3 |
| 20260906050058 | 16 | 136 | 3.2 | 4.8 | 0.00 | 0.08 | 0.08 | 31 | 1019.3 |
| 20260906044601 | 16 | 136 | 3.2 | 6.4 | 0.00 | 0.08 | 0.08 | 32 | 1019.5 |
| 20260906043101 | 17 | 136 | 1.6 | 4.8 | 0.00 | 0.08 | 0.08 | 29 | 1019.4 |
| 20260906041559 | 16 | 136 | 1.6 | 3.2 | 0.00 | 0.08 | 0.08 | 31 | 1019.4 |
| 20260906040056 | 16 | 136 | 1.6 | 4.8 | 0.00 | 0.08 | 0.08 | 33 | 1019.4 |
| 20260906034601 | 17 | 136 | 0.0 | 3.2 | 0.00 | 0.08 | 0.08 | 33 | 1019.3 |
| 20260906033059 | 18 | 0 | 1.6 | 6.4 | 0.00 | 0.08 | 0.08 | 30 | 1019.2 |
| 20260906031603 | 18 | 136 | 0.0 | 3.2 | 0.00 | 0.08 | 0.08 | 30 | 1019.1 |
| 20260906030054 | 19 | 136 | 3.2 | 6.4 | 0.00 | 0.08 | 0.08 | 25 | 1018.7 |
| 20260906024603 | 20 | 136 | 1.6 | 4.8 | 0.00 | 0.10 | 0.08 | 25 | 1018.5 |
| 20260906023100 | 20 | 136 | 1.6 | 4.8 | 0.00 | 0.10 | 0.08 | 24 | 1018.2 |
| 20260906021557 | 20 | 136 | 1.6 | 3.2 | 0.00 | 0.10 | 0.08 | 24 | 1018.2 |
| 20260906014601 | 22 | 136 | 1.6 | 3.2 | 0.00 | 0.10 | 0.08 | 21 | 1018.5 |
| 20260906013103 | 22 | 136 | 1.6 | 3.2 | 0.00 | 0.10 | 0.08 | 21 | 1018.6 |
| 20260906011600 | 23 | 136 | 1.6 | 6.4 | 0.00 | 0.10 | 0.08 | 20 | 1018.5 |
| 20260906010103 | 24 | 136 | 1.6 | 6.4 | 0.00 | 0.10 | 0.08 | 19 | 1018.6 |
| 20260906004558 | 25 | 136 | 1.6 | 9.7 | 0.00 | 0.10 | 0.08 | 18 | 1018.5 |
| 20260906003102 | 25 | 136 | 3.2 | 12.9 | 0.00 | 0.10 | 0.08 | 17 | 1018.3 |
| 20260906001600 | 25 | 136 | 3.2 | 6.4 | 0.00 | 0.10 | 0.08 | 18 | 1018.2 |
| 20260906000059 | 25 | 136 | 4.8 | 16.1 | 0.03 | 0.10 | 0.08 | 17 | 1018.3 |
| 20260905234601 | 25 | 136 | 6.4 | 14.5 | 0.03 | 0.10 | 0.08 | 16 | 1018.2 |
| 20260905233100 | 25 | 136 | 4.8 | 19.3 | 0.03 | 0.10 | 0.08 | 20 | 1018.1 |